Location: Derby
(52.9213°N, 1.4761°W)
Time: 16:59:55
(UTC+01:00)

Vanguard 2 Rocket - Pass Details

Date: 23 May 2025
Orbit: 554 x 3293 km, 32.9° (Epoch: 14 June)

Event Time Altitude Azimuth Distance (km) Brightness Sun altitude
Rises 23:37:10 0° 234° (SW) 7,261 11.3 -14.0°
Reaches altitude 10° 23:43:01 10° 226° (SW) 6,144 10.9 -14.3°
Maximum altitude 23:58:03 32° 174° (S) 3,882 9.5 -15.0°
Drops below altitude 10° 00:08:56 10° 118° (ESE) 4,440 10.0 -15.4°
Sets 00:12:20 0° 108° (ESE) 5,074 10.4 -15.5°
